星链-31184 (STARLINK-31184 )

导读

STARLINK-31184是美国太空探索技术公司SpaceX于2024年1月15日发射的星链(Starlink)低轨通信卫星,属于星链全球宽带互联网星座组网的组成部分。卫星采用平板设计,以氪为工质的霍尔推进器,具备自主避撞能力,使用寿命约5-7年,退役后可坠入大气层烧毁,主要为全球偏远地区提供高速低延迟宽带服务。

Basic Information
目录编号:
58793
目录名称:
STARLINK-31184
国际标识:
2024-012G
轨道中心:
EARTH
卫星名称:
星链-31184
卫星全名:
星链-31184 (STARLINK-31184 )
卫星状态:
在轨 (已飞行970 天)
发射日期:
2024-01-15 UTC
国别 :
美国 (US)
星等 :
--
This satellite is enrolled in the Space Conjunction Data Service (SCDS) and the current flight risk assessment level is: High Risk
Orbit Information
数据来源 国际轨道数据 AOE轨道数据
星历时间 2026-09-11T13:22:01+0800
14小时前
查看轨道信息
2026-09-11T00:00:00+0800
1天前
查看轨道信息
半长轴 6861.198km 6861.215km
偏心率 0.000085 0.0000036
轨道倾角 43.003° 43.003°
近地点辐角 264.033° 356.313°
升交点赤经 197.224° 200.378°
平近点角 96.043° 177.293°
近地点 482.477km 483.053km
远地点 483.645km 483.103km
周期 94.267分钟 94.267分钟
每日圈数 15.275762 15.275706
Detailed Information
固有亮度:
5
最大亮度:
0.3
卫星平台:
Starlink v2.0 mini
覆盖范围:
全球
运营商:
太空探索技术公司
运营商所在国:
美国
制造商(研发单位):
太空探索技术公司
制造商所在国:
美国
使用方式:
暂无
Satellite Introduction
星链(Starlink)计划是由太空探索技术公司(SpaceX)提出的一个巨型低轨卫星互联网星座项目,计划在2019年至2024年间在太空搭建由约1.2万颗卫星组成的“星链”网络,其中1584颗将部署在地球上空550千米处的近地轨道,并从2020年开始工作。该卫星仍在工作。
2D Orbit Map
3D Orbit Map
Orbit Altitude Analysis Chart
Orbit Inclination Analysis Chart
Orbit Comprehensive Analysis Chart
View Comprehensive Chart
Miss Distance Evolution Trend with All Objects
Collision Probability Evolution Trend with All Objects